| time (UTC) | temp F | wind direction | speed MPH | gust MPH | rain 1hr in | rain 24hr in | rain mn in | humidity % | barometer mb |
| 20260503040301 | 58 | 200 | 2.0 | 5.0 | 0.00 | 0.00 | 0.00 | 48 | 1010.1 |
| 20260503035757 | 58 | 182 | 2.0 | 5.0 | 0.00 | 0.00 | 0.00 | 48 | 1010.4 |
| 20260503035255 | 58 | 239 | 2.0 | 5.0 | 0.00 | 0.00 | 0.00 | 48 | 1010.4 |
| 20260503034752 | 58 | 252 | 2.0 | 6.0 | 0.00 | 0.00 | 0.00 | 48 | 1010.4 |
| 20260503034249 | 57 | 244 | 2.0 | 6.0 | 0.00 | 0.00 | 0.00 | 49 | 1010.7 |
| 20260503033746 | 57 | 218 | 2.0 | 5.0 | 0.00 | 0.00 | 0.00 | 50 | 1010.7 |
| 20260503033244 | 57 | 232 | 1.0 | 3.0 | 0.00 | 0.00 | 0.00 | 51 | 1010.7 |
| 20260503032742 | 57 | 234 | 1.0 | 3.0 | 0.00 | 0.00 | 0.00 | 51 | 1010.7 |
| 20260503032240 | 57 | 234 | 1.0 | 4.0 | 0.00 | 0.00 | 0.00 | 50 | 1010.7 |
| 20260503031737 | 57 | 234 | 2.0 | 4.0 | 0.00 | 0.00 | 0.00 | 50 | 1010.7 |
| 20260503031235 | 57 | 232 | 1.0 | 4.0 | 0.00 | 0.00 | 0.00 | 50 | 1011.1 |
| 20260503030731 | 57 | 233 | 1.0 | 4.0 | 0.00 | 0.00 | 0.00 | 49 | 1011.1 |
| 20260503030228 | 57 | 233 | 1.0 | 4.0 | 0.00 | 0.00 | 0.00 | 49 | 1011.1 |
| 20260503025725 | 57 | 229 | 1.0 | 4.0 | 0.00 | 0.00 | 0.00 | 48 | 1011.1 |
| 20260503025222 | 57 | 234 | 1.0 | 4.0 | 0.00 | 0.00 | 0.00 | 48 | 1011.1 |
| 20260503024719 | 57 | 236 | 1.0 | 4.0 | 0.00 | 0.00 | 0.00 | 47 | 1011.1 |
| 20260503024216 | 57 | 217 | 0.0 | 3.0 | 0.00 | 0.00 | 0.00 | 47 | 1011.1 |
| 20260503023713 | 58 | 203 | 1.0 | 5.0 | 0.00 | 0.00 | 0.00 | 47 | 1011.1 |
| 20260503023209 | 58 | 202 | 1.0 | 5.0 | 0.00 | 0.00 | 0.00 | 47 | 1011.1 |
| 20260503022706 | 57 | 200 | 1.0 | 3.0 | 0.00 | 0.00 | 0.00 | 47 | 1011.1 |
| 20260503022205 | 57 | 210 | 0.0 | 3.0 | 0.00 | 0.00 | 0.00 | 47 | 1011.1 |
| 20260503021703 | 57 | 210 | 1.0 | 3.0 | 0.00 | 0.00 | 0.00 | 47 | 1011.1 |
| 20260503021159 | 57 | 209 | 0.0 | 3.0 | 0.00 | 0.00 | 0.00 | 46 | 1011.1 |
| 20260503020656 | 57 | 196 | 0.0 | 3.0 | 0.00 | 0.00 | 0.00 | 47 | 1011.1 |
| 20260503020154 | 58 | 196 | 1.0 | 3.0 | 0.00 | 0.00 | 0.00 | 46 | 1011.1 |
| 20260503015650 | 58 | 198 | 1.0 | 3.0 | 0.00 | 0.00 | 0.00 | 46 | 1011.1 |
| 20260503015147 | 58 | 198 | 2.0 | 5.0 | 0.00 | 0.00 | 0.00 | 46 | 1011.1 |
| 20260503014643 | 58 | 198 | 2.0 | 5.0 | 0.00 | 0.00 | 0.00 | 46 | 1011.1 |
| 20260503014141 | 58 | 196 | 2.0 | 4.0 | 0.00 | 0.00 | 0.00 | 45 | 1011.1 |
| 20260503013638 | 58 | 196 | 2.0 | 6.0 | 0.00 | 0.00 | 0.00 | 45 | 1011.1 |
| 20260503013136 | 58 | 177 | 1.0 | 6.0 | 0.00 | 0.00 | 0.00 | 45 | 1011.1 |
| 20260503012633 | 59 | 184 | 1.0 | 4.0 | 0.00 | 0.00 | 0.00 | 45 | 1011.1 |
| 20260503012130 | 59 | 185 | 1.0 | 4.0 | 0.00 | 0.00 | 0.00 | 45 | 1011.4 |
| 20260503011626 | 59 | 194 | 2.0 | 5.0 | 0.00 | 0.00 | 0.00 | 44 | 1011.4 |
| 20260503011124 | 59 | 192 | 2.0 | 6.0 | 0.00 | 0.00 | 0.00 | 44 | 1011.4 |
| 20260503010620 | 59 | 195 | 2.0 | 6.0 | 0.00 | 0.00 | 0.00 | 44 | 1011.4 |
| 20260503010117 | 59 | 198 | 2.0 | 5.0 | 0.00 | 0.00 | 0.00 | 43 | 1011.4 |
| 20260503005614 | 60 | 199 | 2.0 | 5.0 | 0.00 | 0.00 | 0.00 | 43 | 1011.4 |
| 20260503005111 | 60 | 202 | 2.0 | 6.0 | 0.00 | 0.00 | 0.00 | 42 | 1011.4 |
| 20260503004607 | 60 | 190 | 2.0 | 6.0 | 0.00 | 0.00 | 0.00 | 42 | 1011.4 |
| 20260503004106 | 60 | 197 | 2.0 | 5.0 | 0.00 | 0.00 | 0.00 | 41 | 1011.4 |
| 20260503003602 | 60 | 193 | 1.0 | 5.0 | 0.00 | 0.00 | 0.00 | 41 | 1011.4 |
| 20260503003059 | 61 | 193 | 2.0 | 5.0 | 0.00 | 0.00 | 0.00 | 41 | 1011.8 |
| 20260503002556 | 61 | 242 | 2.0 | 7.0 | 0.00 | 0.00 | 0.00 | 41 | 1011.8 |
| 20260503002053 | 61 | 246 | 3.0 | 7.0 | 0.00 | 0.00 | 0.00 | 41 | 1011.8 |
| 20260503001549 | 61 | 244 | 3.0 | 8.0 | 0.00 | 0.00 | 0.00 | 39 | 1011.8 |
| 20260503001047 | 61 | 236 | 3.0 | 11.0 | 0.00 | 0.00 | 0.00 | 39 | 1011.8 |
| 20260503000544 | 61 | 239 | 4.0 | 11.0 | 0.00 | 0.00 | 0.00 | 40 | 1011.8 |
| 20260503000041 | 61 | 236 | 5.0 | 11.0 | 0.00 | 0.00 | 0.00 | 39 | 1011.8 |
| 20260502235537 | 61 | 227 | 5.0 | 11.0 | 0.00 | 0.00 | 0.00 | 39 | 1011.8 |
| 20260502235036 | 61 | 234 | 5.0 | 11.0 | 0.00 | 0.00 | 0.00 | 39 | 1011.8 |
| 20260502234531 | 61 | 252 | 5.0 | 10.0 | 0.00 | 0.00 | 0.00 | 39 | 1011.8 |
| 20260502234029 | 61 | 244 | 5.0 | 10.0 | 0.00 | 0.00 | 0.00 | 39 | 1012.1 |
| 20260502233524 | 61 | 269 | 7.0 | 11.0 | 0.00 | 0.00 | 0.00 | 39 | 1012.1 |
| 20260502233021 | 61 | 248 | 5.0 | 11.0 | 0.00 | 0.00 | 0.00 | 39 | 1012.1 |
| 20260502232517 | 61 | 284 | 5.0 | 11.0 | 0.00 | 0.00 | 0.00 | 39 | 1012.1 |
| 20260502232015 | 61 | 234 | 7.0 | 13.0 | 0.00 | 0.00 | 0.00 | 39 | 1012.4 |
| 20260502231511 | 61 | 261 | 9.0 | 16.0 | 0.00 | 0.00 | 0.00 | 39 | 1012.4 |
| 20260502231009 | 61 | 251 | 7.0 | 16.0 | 0.00 | 0.00 | 0.00 | 39 | 1012.1 |
| 20260502230508 | 61 | 288 | 7.0 | 13.0 | 0.00 | 0.00 | 0.00 | 39 | 1012.4 |
| 20260502230006 | 61 | 259 | 8.0 | 13.0 | 0.00 | 0.00 | 0.00 | 38 | 1012.4 |
| 20260502225500 | 61 | 261 | 9.0 | 16.0 | 0.00 | 0.00 | 0.00 | 38 | 1012.4 |
| 20260502224958 | 61 | 261 | 10.0 | 17.0 | 0.00 | 0.00 | 0.00 | 38 | 1012.4 |
| 20260502224454 | 62 | 280 | 10.0 | 17.0 | 0.00 | 0.00 | 0.00 | 38 | 1012.4 |
| 20260502223951 | 61 | 283 | 11.0 | 17.0 | 0.00 | 0.00 | 0.00 | 38 | 1012.4 |
| 20260502223449 | 62 | 288 | 11.0 | 20.0 | 0.00 | 0.00 | 0.00 | 38 | 1012.4 |
| 20260502222947 | 62 | 258 | 11.0 | 20.0 | 0.00 | 0.00 | 0.00 | 38 | 1012.4 |
| 20260502222444 | 62 | 292 | 9.0 | 18.0 | 0.00 | 0.00 | 0.00 | 38 | 1012.4 |
| 20260502221939 | 61 | 267 | 9.0 | 18.0 | 0.00 | 0.00 | 0.00 | 38 | 1012.8 |
| 20260502221436 | 62 | 264 | 9.0 | 17.0 | 0.00 | 0.00 | 0.00 | 38 | 1012.8 |
| 20260502220933 | 61 | 277 | 9.0 | 17.0 | 0.00 | 0.00 | 0.00 | 38 | 1012.8 |
| 20260502220429 | 61 | 262 | 10.0 | 17.0 | 0.00 | 0.00 | 0.00 | 38 | 1012.8 |
| 20260502215926 | 61 | 271 | 10.0 | 17.0 | 0.00 | 0.00 | 0.00 | 38 | 1012.8 |
| 20260502215423 | 61 | 281 | 10.0 | 17.0 | 0.00 | 0.00 | 0.00 | 37 | 1012.8 |
| 20260502214920 | 61 | 285 | 9.0 | 15.0 | 0.00 | 0.00 | 0.00 | 37 | 1012.8 |
| 20260502214416 | 62 | 292 | 7.0 | 15.0 | 0.00 | 0.00 | 0.00 | 38 | 1013.1 |
| 20260502213914 | 61 | 273 | 8.0 | 17.0 | 0.00 | 0.00 | 0.00 | 37 | 1013.1 |
| 20260502213410 | 61 | 240 | 9.0 | 17.0 | 0.00 | 0.00 | 0.00 | 37 | 1013.1 |
| 20260502212909 | 61 | 265 | 7.0 | 16.0 | 0.00 | 0.00 | 0.00 | 38 | 1013.5 |
| 20260502212408 | 61 | 254 | 7.0 | 12.0 | 0.00 | 0.00 | 0.00 | 37 | 1013.5 |
| 20260502211905 | 61 | 291 | 8.0 | 16.0 | 0.00 | 0.00 | 0.00 | 37 | 1013.5 |
| 20260502211400 | 61 | 324 | 10.0 | 16.0 | 0.00 | 0.00 | 0.00 | 37 | 1013.5 |
| 20260502210858 | 61 | 236 | 8.0 | 16.0 | 0.00 | 0.00 | 0.00 | 37 | 1013.5 |
| 20260502210355 | 60 | 282 | 8.0 | 13.0 | 0.00 | 0.00 | 0.00 | 37 | 1013.5 |
| 20260502205852 | 60 | 292 | 10.0 | 15.0 | 0.00 | 0.00 | 0.00 | 36 | 1013.8 |
| 20260502205347 | 61 | 313 | 10.0 | 16.0 | 0.00 | 0.00 | 0.00 | 36 | 1013.8 |
| 20260502204845 | 61 | 213 | 9.0 | 16.0 | 0.00 | 0.00 | 0.00 | 36 | 1013.8 |
| 20260502204342 | 61 | 286 | 8.0 | 14.0 | 0.00 | 0.00 | 0.00 | 35 | 1013.8 |
| 20260502203839 | 61 | 190 | 7.0 | 17.0 | 0.00 | 0.00 | 0.00 | 36 | 1013.8 |
| 20260502203337 | 61 | 269 | 8.0 | 17.0 | 0.00 | 0.00 | 0.00 | 37 | 1014.2 |
| 20260502202832 | 60 | 260 | 11.0 | 20.0 | 0.00 | 0.00 | 0.00 | 36 | 1014.2 |
| 20260502202330 | 60 | 275 | 12.0 | 20.0 | 0.00 | 0.00 | 0.00 | 36 | 1014.2 |
| 20260502201828 | 60 | 277 | 9.0 | 18.0 | 0.00 | 0.00 | 0.00 | 36 | 1014.2 |
| 20260502201323 | 60 | 285 | 8.0 | 15.0 | 0.00 | 0.00 | 0.00 | 35 | 1014.2 |
| 20260502200820 | 60 | 282 | 9.0 | 17.0 | 0.00 | 0.00 | 0.00 | 35 | 1014.6 |
| 20260502200316 | 60 | 246 | 9.0 | 17.0 | 0.00 | 0.00 | 0.00 | 35 | 1014.6 |
| 20260502195814 | 59 | 284 | 10.0 | 18.0 | 0.00 | 0.00 | 0.00 | 34 | 1014.6 |
| 20260502195310 | 60 | 279 | 10.0 | 18.0 | 0.00 | 0.00 | 0.00 | 34 | 1014.6 |
| 20260502194807 | 59 | 296 | 10.0 | 17.0 | 0.00 | 0.00 | 0.00 | 35 | 1014.6 |
| 20260502194304 | 60 | 280 | 10.0 | 17.0 | 0.00 | 0.00 | 0.00 | 35 | 1014.9 |
| 20260502193800 | 59 | 281 | 8.0 | 16.0 | 0.00 | 0.00 | 0.00 | 35 | 1014.9 |
| 20260502193257 | 59 | 299 | 8.0 | 14.0 | 0.00 | 0.00 | 0.00 | 36 | 1014.9 |
| 20260502192758 | 59 | 277 | 10.0 | 16.0 | 0.00 | 0.00 | 0.00 | 36 | 1015.2 |
| 20260502192255 | 59 | 252 | 9.0 | 16.0 | 0.00 | 0.00 | 0.00 | 36 | 1015.2 |
| 20260502191752 | 58 | 274 | 7.0 | 16.0 | 0.00 | 0.00 | 0.00 | 37 | 1014.9 |
| 20260502191250 | 58 | 321 | 7.0 | 14.0 | 0.00 | 0.00 | 0.00 | 37 | 1015.2 |
| 20260502190747 | 59 | 244 | 9.0 | 16.0 | 0.00 | 0.00 | 0.00 | 36 | 1015.2 |
| 20260502190245 | 59 | 281 | 9.0 | 16.0 | 0.00 | 0.00 | 0.00 | 37 | 1015.2 |
| 20260502185744 | 59 | 261 | 8.0 | 16.0 | 0.00 | 0.00 | 0.00 | 36 | 1015.2 |
| 20260502185241 | 59 | 286 | 7.0 | 15.0 | 0.00 | 0.00 | 0.00 | 36 | 1015.2 |
| 20260502184738 | 59 | 281 | 9.0 | 16.0 | 0.00 | 0.00 | 0.00 | 35 | 1015.2 |
| 20260502184233 | 58 | 323 | 11.0 | 18.0 | 0.00 | 0.00 | 0.00 | 35 | 1015.2 |
| 20260502183730 | 58 | 300 | 10.0 | 26.0 | 0.00 | 0.00 | 0.00 | 36 | 1015.6 |
| 20260502183226 | 58 | 298 | 9.0 | 26.0 | 0.00 | 0.00 | 0.00 | 35 | 1015.6 |
| 20260502182722 | 58 | 328 | 12.0 | 21.0 | 0.00 | 0.00 | 0.00 | 36 | 1015.9 |
| 20260502182217 | 57 | 309 | 11.0 | 21.0 | 0.00 | 0.00 | 0.00 | 36 | 1015.9 |
| 20260502181714 | 57 | 292 | 9.0 | 20.0 | 0.00 | 0.00 | 0.00 | 36 | 1015.9 |
| 20260502181214 | 57 | 302 | 10.0 | 17.0 | 0.00 | 0.00 | 0.00 | 36 | 1015.9 |
| 20260502180710 | 57 | 294 | 10.0 | 21.0 | 0.00 | 0.00 | 0.00 | 36 | 1015.9 |
| 20260502180208 | 57 | 311 | 10.0 | 21.0 | 0.00 | 0.00 | 0.00 | 37 | 1016.3 |
| 20260502170132 | 56 | 292 | 8.0 | 16.0 | 0.00 | 0.00 | 0.00 | 36 | 1016.9 |
| 20260502164119 | 55 | 292 | 12.0 | 21.0 | 0.00 | 0.00 | 0.00 | 37 | 1016.9 |
| 20260502163615 | 55 | 275 | 11.0 | 21.0 | 0.00 | 0.00 | 0.00 | 38 | 1017.3 |
| 20260502163111 | 55 | 257 | 9.0 | 18.0 | 0.00 | 0.00 | 0.00 | 38 | 1017.3 |
| 20260502162608 | 54 | 338 | 11.0 | 17.0 | 0.00 | 0.00 | 0.00 | 40 | 1017.3 |
| 20260502162105 | 55 | 273 | 10.0 | 17.0 | 0.00 | 0.00 | 0.00 | 40 | 1017.3 |
| 20260502161602 | 54 | 265 | 10.0 | 18.0 | 0.00 | 0.00 | 0.00 | 41 | 1017.6 |
| 20260502161059 | 54 | 277 | 10.0 | 18.0 | 0.00 | 0.00 | 0.00 | 41 | 1017.6 |
| 20260502160557 | 54 | 298 | 9.0 | 16.0 | 0.00 | 0.00 | 0.00 | 41 | 1017.6 |
| 20260502152010 | 52 | 259 | 6.0 | 13.0 | 0.00 | 0.00 | 0.00 | 47 | 1018.1 |
| 20260502151507 | 52 | 263 | 3.0 | 10.0 | 0.00 | 0.00 | 0.00 | 51 | 1018.1 |
| 20260502151004 | 51 | 265 | 3.0 | 10.0 | 0.00 | 0.00 | 0.00 | 53 | 1018.1 |
| 20260502150502 | 50 | 275 | 4.0 | 8.0 | 0.00 | 0.00 | 0.00 | 54 | 1018.1 |
| 20260502130347 | 40 | 266 | 4.0 | 9.0 | 0.00 | 0.00 | 0.00 | 70 | 1018.4 |
| 20260502123330 | 37 | 217 | 1.0 | 3.0 | 0.00 | 0.00 | 0.00 | 73 | 1018.4 |
| 20260502122827 | 36 | 165 | 1.0 | 2.0 | 0.00 | 0.00 | 0.00 | 75 | 1018.4 |
| 20260502122322 | 36 | 164 | 0.0 | 2.0 | 0.00 | 0.00 | 0.00 | 76 | 1018.4 |
| 20260502121821 | 35 | 163 | 0.0 | 2.0 | 0.00 | 0.00 | 0.00 | 77 | 1018.7 |
| 20260502121318 | 35 | 163 | 0.0 | 2.0 | 0.00 | 0.00 | 0.00 | 78 | 1018.4 |
| 20260502120815 | 35 | 163 | 0.0 | 1.0 | 0.00 | 0.00 | 0.00 | 79 | 1018.7 |
| 20260502120311 | 34 | 163 | 0.0 | 1.0 | 0.00 | 0.00 | 0.00 | 80 | 1018.7 |
| 20260502115809 | 34 | 163 | 0.0 | 1.0 | 0.00 | 0.00 | 0.00 | 80 | 1018.7 |
| 20260502115306 | 33 | 163 | 0.0 | 0.0 | 0.00 | 0.00 | 0.00 | 80 | 1018.4 |
| 20260502114802 | 33 | 163 | 0.0 | 0.0 | 0.00 | 0.00 | 0.00 | 80 | 1018.4 |
| 20260502114259 | 33 | 163 | 0.0 | 0.0 | 0.00 | 0.00 | 0.00 | 80 | 1018.4 |
| 20260502113756 | 33 | 163 | 0.0 | 0.0 | 0.00 | 0.00 | 0.00 | 80 | 1018.4 |
| 20260502113254 | 33 | 163 | 0.0 | 1.0 | 0.00 | 0.00 | 0.00 | 81 | 1018.4 |
| 20260502112752 | 33 | 163 | 0.0 | 1.0 | 0.00 | 0.00 | 0.00 | 81 | 1018.4 |
| 20260502112249 | 32 | 163 | 0.0 | 0.0 | 0.00 | 0.00 | 0.00 | 81 | 1018.4 |
| 20260502111746 | 33 | 163 | 0.0 | 0.0 | 0.00 | 0.00 | 0.00 | 81 | 1018.4 |
| 20260502111243 | 33 | 163 | 0.0 | 0.0 | 0.00 | 0.00 | 0.00 | 81 | 1018.4 |
| 20260502110741 | 33 | 163 | 0.0 | 2.0 | 0.00 | 0.00 | 0.00 | 81 | 1018.4 |
| 20260502110238 | 33 | 163 | 0.0 | 2.0 | 0.00 | 0.00 | 0.00 | 82 | 1018.4 |
| 20260502105737 | 33 | 163 | 1.0 | 2.0 | 0.00 | 0.00 | 0.00 | 82 | 1018.4 |
| 20260502105232 | 33 | 163 | 1.0 | 4.0 | 0.00 | 0.00 | 0.00 | 82 | 1018.4 |
| 20260502104730 | 33 | 163 | 1.0 | 4.0 | 0.00 | 0.00 | 0.00 | 81 | 1018.4 |
| 20260502104228 | 33 | 99 | 0.0 | 2.0 | 0.00 | 0.00 | 0.00 | 78 | 1018.4 |
| 20260502103725 | 33 | 99 | 0.0 | 0.0 | 0.00 | 0.00 | 0.00 | 76 | 1018.4 |
| 20260502103223 | 33 | 99 | 0.0 | 0.0 | 0.00 | 0.00 | 0.00 | 75 | 1018.4 |
| 20260502102719 | 33 | 99 | 0.0 | 0.0 | 0.00 | 0.00 | 0.00 | 75 | 1018.4 |
| 20260502102216 | 33 | 99 | 0.0 | 0.0 | 0.00 | 0.00 | 0.00 | 74 | 1018.4 |
| 20260502101714 | 33 | 99 | 0.0 | 0.0 | 0.00 | 0.00 | 0.00 | 74 | 1018.4 |
| 20260502101212 | 33 | 99 | 0.0 | 0.0 | 0.00 | 0.00 | 0.00 | 74 | 1018.4 |
| 20260502100710 | 33 | 99 | 0.0 | 2.0 | 0.00 | 0.00 | 0.00 | 73 | 1018.4 |
| 20260502100208 | 34 | 99 | 0.0 | 2.0 | 0.00 | 0.00 | 0.00 | 73 | 1018.4 |
| 20260502091142 | 33 | 99 | 1.0 | 2.0 | 0.00 | 0.00 | 0.00 | 76 | 1018.4 |
| 20260502090639 | 33 | 99 | 1.0 | 2.0 | 0.00 | 0.00 | 0.00 | 76 | 1018.7 |
| 20260502090136 | 33 | 99 | 1.0 | 2.0 | 0.00 | 0.00 | 0.00 | 76 | 1018.4 |
| 20260502071534 | 34 | 99 | 1.0 | 2.0 | 0.00 | 0.00 | 0.00 | 76 | 1018.7 |
| 20260502071032 | 35 | 99 | 1.0 | 2.0 | 0.00 | 0.00 | 0.00 | 75 | 1018.7 |
| 20260502070530 | 35 | 99 | 1.0 | 2.0 | 0.00 | 0.00 | 0.00 | 75 | 1018.7 |
| 20260502070027 | 35 | 99 | 1.0 | 2.0 | 0.00 | 0.00 | 0.00 | 74 | 1019.1 |
| 20260502065526 | 35 | 99 | 1.0 | 2.0 | 0.00 | 0.00 | 0.00 | 73 | 1019.1 |
| 20260502065023 | 36 | 99 | 1.0 | 2.0 | 0.00 | 0.00 | 0.00 | 73 | 1019.1 |
| 20260502064521 | 36 | 99 | 0.0 | 2.0 | 0.00 | 0.00 | 0.00 | 73 | 1019.1 |
| 20260502064018 | 36 | 99 | 0.0 | 2.0 | 0.00 | 0.00 | 0.00 | 73 | 1019.1 |
| 20260502063516 | 36 | 99 | 0.0 | 1.0 | 0.00 | 0.00 | 0.00 | 73 | 1019.1 |
| 20260502063014 | 36 | 99 | 0.0 | 1.0 | 0.00 | 0.00 | 0.00 | 73 | 1019.1 |
| 20260502062510 | 36 | 99 | 0.0 | 1.0 | 0.00 | 0.00 | 0.00 | 73 | 1019.1 |
| 20260502062009 | 36 | 99 | 0.0 | 2.0 | 0.00 | 0.00 | 0.00 | 73 | 1019.1 |
| 20260502061506 | 36 | 99 | 1.0 | 2.0 | 0.00 | 0.00 | 0.00 | 72 | 1019.1 |
| 20260502061003 | 36 | 99 | 0.0 | 2.0 | 0.00 | 0.00 | 0.00 | 72 | 1019.1 |
| 20260502060458 | 36 | 99 | 0.0 | 2.0 | 0.00 | 0.00 | 0.00 | 72 | 1019.1 |
| 20260502055955 | 37 | 99 | 1.0 | 2.0 | 0.00 | 0.00 | 0.00 | 71 | 1019.1 |
| 20260502055452 | 37 | 99 | 1.0 | 2.0 | 0.00 | 0.00 | 0.00 | 71 | 1019.1 |
| 20260502054952 | 37 | 99 | 1.0 | 2.0 | 0.00 | 0.00 | 0.00 | 71 | 1019.1 |
| 20260502054450 | 37 | 99 | 0.0 | 2.0 | 0.00 | 0.00 | 0.00 | 70 | 1019.1 |
| 20260502053947 | 37 | 99 | 0.0 | 2.0 | 0.00 | 0.00 | 0.00 | 70 | 1019.1 |
| 20260502053444 | 38 | 99 | 1.0 | 2.0 | 0.00 | 0.00 | 0.00 | 70 | 1019.1 |
| 20260502052942 | 38 | 99 | 1.0 | 2.0 | 0.00 | 0.00 | 0.00 | 69 | 1019.1 |
| 20260502052439 | 38 | 99 | 1.0 | 2.0 | 0.00 | 0.00 | 0.00 | 69 | 1019.1 |
| 20260502051938 | 38 | 99 | 1.0 | 3.0 | 0.00 | 0.00 | 0.00 | 68 | 1019.1 |
| 20260502051435 | 39 | 99 | 1.0 | 3.0 | 0.00 | 0.00 | 0.00 | 67 | 1019.1 |
| 20260502050932 | 39 | 99 | 1.0 | 2.0 | 0.00 | 0.00 | 0.00 | 67 | 1019.1 |
| 20260502050429 | 39 | 99 | 2.0 | 2.0 | 0.00 | 0.00 | 0.00 | 67 | 1019.1 |
| 20260502045926 | 39 | 99 | 2.0 | 3.0 | 0.00 | 0.00 | 0.00 | 66 | 1019.1 |
| 20260502045423 | 39 | 99 | 2.0 | 3.0 | 0.00 | 0.00 | 0.00 | 65 | 1019.1 |
| 20260502044920 | 40 | 99 | 1.0 | 3.0 | 0.00 | 0.00 | 0.00 | 64 | 1019.1 |
| 20260502044415 | 40 | 99 | 1.0 | 2.0 | 0.00 | 0.00 | 0.00 | 64 | 1019.1 |
| 20260502043912 | 40 | 99 | 1.0 | 2.0 | 0.00 | 0.00 | 0.00 | 64 | 1018.7 |
| 20260502043410 | 40 | 99 | 1.0 | 3.0 | 0.00 | 0.00 | 0.00 | 65 | 1019.1 |
| 20260502042910 | 40 | 99 | 2.0 | 3.0 | 0.00 | 0.00 | 0.00 | 65 | 1018.7 |
| 20260502042407 | 40 | 99 | 2.0 | 4.0 | 0.00 | 0.00 | 0.00 | 65 | 1019.1 |
| 20260502041904 | 40 | 99 | 2.0 | 4.0 | 0.00 | 0.00 | 0.00 | 65 | 1019.1 |
| 20260502041402 | 40 | 34 | 1.0 | 3.0 | 0.00 | 0.00 | 0.00 | 65 | 1019.1 |
| 20260502040859 | 40 | 19 | 0.0 | 2.0 | 0.00 | 0.00 | 0.00 | 63 | 1019.1 |